User: anonymous   Login
Location: Lincolnton
(35.4660°N, 81.2500°W)
Time: 23:50:00
(UTC-05:00)
Language:

Hubble Space Telescope - Orbit

View from above orbital plane
View from above orbital plane
View from above satellite
View from above satellite

Ground track
Ground track

The orbit data is extracted from the following two-line orbital elements,

1 20580U 90037B   14353.55938657  .00005544  00000-0  35489-3 0  1822
2 20580 028.4704 257.8210 0003118 106.2561 276.7877 15.06455587152683
Epoch (UTC): 19 December 2014 13:25:31
Eccentricity: 0.0003118
inclination: 28.4704°
perigee height: 545 km
apogee height: 549 km
right ascension of ascending node: 257.8210°
argument of perigee: 106.2561°
revolutions per day: 15.06455587
mean anomaly at epoch: 276.7877°
orbit number at epoch: 15268

The dashed part of the orbit path shows where the satellite is in the earth's shadow,  

DLR